This is the latest recevied weather packets stored in our database for station/object SP1BMW-13. If no packets are shown the sender has not sent any weather packets the latest 10 day(s).
| Time | Temp. | Humidity | Pressure | Rain* | Wind** | Luminosity | Snow |
|---|---|---|---|---|---|---|---|
| 1777353355 | 2.78° C | 67% | 1026.1 hPa | 0 mm | 0 m/s | 59 W/m² | - |
| 1777353295 | 2.78° C | 67% | 1026.2 hPa | 0 mm | 0 m/s | 57 W/m² | - |
| 1777353235 | 2.78° C | 67% | 1026.2 hPa | 0 mm | 0 m/s | 56 W/m² | - |
| 1777353175 | 2.78° C | 67% | 1026.2 hPa | 0 mm | 0.45 m/s, 50° | 55 W/m² | - |
| 1777353114 | 2.22° C | 68% | 1026 hPa | 0 mm | 0 m/s | 53 W/m² | - |
| 1777353054 | 2.22° C | 68% | 1026.3 hPa | 0 mm | 0 m/s | 52 W/m² | - |
| 1777352994 | 2.22° C | 69% | 1026.2 hPa | 0 mm | 0 m/s | 52 W/m² | - |
| 1777352934 | 1.67° C | 69% | 1026.3 hPa | 0 mm | 0 m/s | 51 W/m² | - |
| 1777352874 | 1.67° C | 70% | 1026.2 hPa | 0 mm | 0 m/s | 50 W/m² | - |
| 1777352815 | 1.67° C | 70% | 1026.3 hPa | 0 mm | 0 m/s | 50 W/m² | - |
| 1777352754 | 1.67° C | 71% | 1025.9 hPa | 0 mm | 0 m/s | 50 W/m² | - |
| 1777352695 | 1.67° C | 71% | 1026.2 hPa | 0 mm | 0 m/s | 52 W/m² | - |
| 1777352635 | 1.67° C | 70% | 1026.2 hPa | 0 mm | 0 m/s | 54 W/m² | - |
| 1777352575 | 1.67° C | 70% | 1025.9 hPa | 0 mm | 0 m/s | 57 W/m² | - |
| 1777352515 | 1.67° C | 71% | 1026.1 hPa | 0 mm | 0.45 m/s, 55° | 59 W/m² | - |
| 1777352455 | 1.67° C | 71% | 1025.8 hPa | 0 mm | 0 m/s | 60 W/m² | - |
| 1777352394 | 1.67° C | 71% | 1026.1 hPa | 0 mm | 0 m/s | 62 W/m² | - |
| 1777352335 | 1.11° C | 71% | 1026.1 hPa | 0 mm | 0.45 m/s, 61° | 60 W/m² | - |
| 1777352275 | 1.11° C | 73% | 1026.1 hPa | 0 mm | 0 m/s | 63 W/m² | - |
| 1777352215 | 1.11° C | 73% | 1026.2 hPa | 0 mm | 0 m/s | 59 W/m² | - |
| 1777352155 | 1.11° C | 73% | 1026.3 hPa | 0 mm | 0 m/s | 63 W/m² | - |
| 1777352095 | 1.11° C | 73% | 1026 hPa | 0 mm | 0 m/s | 62 W/m² | - |
| 1777352035 | 1.11° C | 73% | 1025.9 hPa | 0 mm | 0 m/s | 61 W/m² | - |
| 1777351975 | 0.56° C | 74% | 1026 hPa | 0 mm | 0 m/s | 60 W/m² | - |
| 1777351915 | 0.56° C | 75% | 1026.1 hPa | 0 mm | 0 m/s | 58 W/m² | - |
* Rain latest hour (hover to see other rain measurements)
** Current wind speed in m/s (hover to see current wind gust speed)